NOAA NWS Hourly Roundups by Site

Regional Weather Roundup for Omaha, NE

To Select Another Site Choose from List

Select Site:  

000
ASUS43 KOAX 270913
RWRNE

WEATHER ROUNDUP FOR NEBRASKA
NATIONAL WEATHER SERVICE OMAHA NE
300 AM CST TUE FEB 27 2024

NOTES: SATELLITE DATA IS BEING USED TO AUGMENT CLOUD COVER ABOVE
       12000 FEET.
       "FAIR" INDICATES FEW OR NO CLOUDS BELOW 12,000 FEET WITH NO
       SIGNIFICANT WEATHER AND/OR OBSTRUCTIONS TO VISIBILITY.


NEZ001>004-019>022-054>056-271000-
NEBRASKA PANHANDLE

CITY           SKY/WX    TMP DP  RH WIND       PRES   REMARKS
SCOTTSBLUFF    MOCLDY    34  25  69 NW8       29.41S WCI  27
ALLIANCE       PTCLDY    33  30  88 N15       29.42R WCI  23
CHADRON        CLOUDY    28  22  78 N16       29.54R WCI  16
GORDON         CLOUDY    28  23  83 N23G30    29.48R WCI  13
KIMBALL        PTCLDY    30  21  68 SW3       29.41F
SIDNEY         PTCLDY    27  18  69 W8        29.39F WCI  19
$$

NEZ057>060-069>072-079>082-271000-
SOUTHWEST NEBRASKA

CITY           SKY/WX    TMP DP  RH WIND       PRES   REMARKS
NORTH PLATTE   PTCLDY    27  21  78 NW3       29.43S
GRANT          PTCLDY    28  21  74 CALM      29.42F
IMPERIAL       PTCLDY    32  19  58 SW3       29.43F
LEXINGTON      CLEAR     31  23  72 N7        29.41F WCI  24
MCCOOK         CLEAR     33  22  63 W9        29.40F WCI  25
OGALLALA       PTCLDY    29  19  66 CALM      29.43F
$$

NEZ005>010-023>029-035>040-094-271000-
NORTH CENTRAL NEBRASKA

CITY           SKY/WX    TMP DP  RH WIND       PRES   REMARKS
VALENTINE      CLOUDY    35  28  75 NW21G37   29.46R WCI  24
AINSWORTH      MOCLDY    37  32  79 N28       29.43R WCI  25
BROKEN BOW     CLEAR     43  25  49 W9        29.39F
O`NEILL        PTCLDY    49  24  37 W20       29.36R
ORD            CLEAR     46  24  42 CALM      29.38R
THEDFORD       MOCLDY    42  29  60 N10G16    29.44R
$$

NEZ041-046>049-061>064-073>077-083>087-271000-
SOUTH CENTRAL NEBRASKA

CITY           SKY/WX    TMP DP  RH WIND       PRES   REMARKS
GRAND ISLAND   CLEAR     45  22  40 W5        29.40S
AURORA         CLEAR     40  21  47 W6        29.39F
HASTINGS       PTCLDY    40  24  53 CALM      29.39F
HEBRON         PTCLDY    38  27  64 CALM      29.39F
HOLDREGE       CLEAR     41  21  46 CALM      29.39F
KEARNEY        CLEAR     38  21  50 NW6       29.40F WCI  33
YORK           CLEAR     37  21  52 SW8       29.38F WCI  31
$$

NEZ011>018-030>034-042>045-271000-
NORTHEAST NEBRASKA

CITY           SKY/WX    TMP DP  RH WIND       PRES   REMARKS
NORFOLK        CLEAR     50  23  34 SW16      29.34R
ALBION         CLEAR     42  19  39 CALM      29.38S
BLAIR          CLEAR     54  21  27 W6        29.35F
COLUMBUS       CLEAR     35  24  64 W7        29.38F WCI  29
FREMONT        CLEAR     52  20  28 W5        29.36F
TEKAMAH        CLEAR     47  23  38 SW13      29.33F
WAYNE            N/A    N/A N/A N/A MISG        N/A
$$

NEZ050>053-065>068-078-088>093-271000-
SOUTHEAST NEBRASKA

CITY           SKY/WX    TMP DP  RH WIND       PRES   REMARKS
LINCOLN        CLEAR     39  22  50 CALM      29.39F
OMAHA EPPLEY   CLEAR     42  26  53 SE7       29.35F
BEATRICE       CLEAR     36  26  66 CALM      29.38F
FALLS CITY     CLEAR     45  24  43 CALM      29.38F
NEBRASKA CITY  CLEAR     57  20  23 W9        29.37F
PLATTSMOUTH    CLEAR     53  22  29 SW5       29.36F
$$

NEZ044-045-051>053-067-271000-
OMAHA AREA

CITY           SKY/WX    TMP DP  RH WIND       PRES   REMARKS
OMAHA EPPLEY   CLEAR     42  26  53 SE7       29.35F
BLAIR          CLEAR     54  21  27 W6        29.35F
FREMONT        CLEAR     52  20  28 W5        29.36F
MILLARD        CLEAR     40  28  60 CALM      29.36F
OFFUTT AFB     CLEAR     44  22  41 CALM      29.35F
PLATTSMOUTH    CLEAR     53  22  29 SW5       29.36F
WAHOO          CLEAR     50  23  34 W9        29.36F
$$


 

View Past Reports for Omaha, NE.

Products Courtesy of NOAA-NWS
NWS Information Parsing Script by Ken True at Saratoga Weather - Script by SE Lincoln Weather.